This demonstration page uses our WeatherBlox Daily Observations layout. Learn more.

Left ArrowRight Arrow

53.62937, 11.41316

Hourly Observations for May 4, 2021

Temp ( °F °C ) Dew Point ( °F °C ) Humidity (%) Winds ( mph kmh ) Pressure ( in mb ) Visibility ( mi km ) Precip ( " mm )
5:50 am 05:50 Mostly Cloudy with Light Rain 45 7 39 4 81 81 ESE 7 11 29.53 1000 30 48 N/A
6:20 am 06:20 Mostly Cloudy with Light Rain 45 7 39 4 81 81 SE 8 13 29.53 1000 30 48 N/A
6:50 am 06:50 Mostly Cloudy with Light Rain 45 7 39 4 81 81 SE 8 13 29.47 998 6 9 N/A
7:20 am 07:20 Mostly Cloudy with Drizzle 45 7 39 4 81 81 SSE 9 15 29.47 998 30 48 N/A
7:50 am 07:50 Mostly Cloudy with Drizzle 45 7 39 4 81 81 SSE 8 13 29.44 997 30 48 N/A
8:20 am 08:20 Mostly Cloudy with Light Rain 46 8 41 5 82 82 S 7 11 29.44 997 30 48 N/A
8:50 am 08:50 Mostly Cloudy with Light Rain 45 7 41 5 87 87 SSE 9 15 29.41 996 30 48 N/A
9:20 am 09:20 Mostly Cloudy with Light Rain 46 8 43 6 87 87 SSE 10 17 29.38 995 30 48 N/A
9:50 am 09:50 Mostly Cloudy 48 9 43 6 82 82 SSE 12 19 29.38 995 30 48 N/A
10:20 am 10:20 Mostly Cloudy 48 9 41 5 76 76 SSE 14 22 29.35 994 30 48 N/A
10:50 am 10:50 Mostly Cloudy 48 9 41 5 76 76 S 15 24 29.35 994 30 48 N/A
11:20 am 11:20 Mostly Cloudy 50 10 43 6 76 76 S 17 28 29.35 994 30 48 N/A
11:50 am 11:50 Windy with Rain Showers Likely 52 11 43 6 72 72 S 21 33 29.32 993 6 9 N/A
12:20 pm 12:20 Mostly Cloudy 52 11 43 6 72 72 S 17 28 29.32 993 6 9 N/A
12:50 pm 12:50 Mostly Cloudy 50 10 41 5 71 71 S 16 26 29.32 993 6 9 N/A
1:20 pm 13:20 Mostly Cloudy 50 10 43 6 76 76 S 18 30 29.32 993 30 48 N/A
1:50 pm 13:50 Mostly Cloudy 52 11 43 6 72 72 S 17 28 29.29 992 30 48 N/A
2:20 pm 14:20 Mostly Cloudy 52 11 45 7 77 77 S 17 28 29.29 992 30 48 N/A
2:50 pm 14:50 Mostly Cloudy with Light Showers 52 11 43 6 72 72 S 18 30 29.29 992 30 48 N/A
3:20 pm 15:20 Partly Cloudy with Showers Nearby 54 12 45 7 72 72 S 15 24 29.26 991 30 48 N/A
3:50 pm 15:50 Mostly Cloudy with Showers Nearby 54 12 43 6 67 67 S 16 26 29.26 991 30 48 N/A
4:20 pm 16:20 Partly Cloudy with Nearby Thunderstorms 46 8 43 6 87 87 SSW 18 30 29.27 991 30 48 N/A
4:50 pm 16:50 Mostly Cloudy with Showers Nearby 50 10 43 6 76 76 SSW 16 26 29.29 992 30 48 N/A
5:20 pm 17:20 Windy with Rain Showers Likely 50 10 41 5 71 71 SW 22 35 29.29 992 30 48 N/A
5:50 pm 17:50 Partly Cloudy with Showers Nearby 48 9 41 5 76 76 SSW 24 39 29.30 992 30 48 N/A
6:20 pm 18:20 Partly Cloudy with Showers Nearby 50 10 41 5 71 71 SSW 22 35 29.29 992 30 48 N/A
6:50 pm 18:50 Mostly Cloudy with Showers Nearby 48 9 41 5 76 76 SSW 20 31 29.30 992 30 48 N/A
7:20 pm 19:20 Mostly Cloudy with Showers Nearby 48 9 41 5 76 76 SSW 17 28 29.30 992 30 48 N/A
7:50 pm 19:50 Mostly Cloudy 48 9 39 4 71 71 SSW 16 26 29.27 991 30 48 N/A
8:20 pm 20:20 Mostly Cloudy 48 9 39 4 71 71 SSW 20 31 29.27 991 30 48 N/A
8:50 pm 20:50 Mostly Cloudy 48 9 39 4 71 71 SSW 17 28 29.27 991 30 48 N/A
9:20 pm 21:20 Partly Cloudy with Showers Nearby 46 8 41 5 82 82 SSW 17 28 29.30 992 30 48 N/A
9:50 pm 21:50 Mostly Cloudy 46 8 41 5 82 82 SSW 16 26 29.30 992 30 48 N/A

Powered by AerisWeather